EW5625 Weather Reports


time (UTC)temp
F
wind
direction
speed
knots
gust
knots
rain 1hr
in
rain 24hr
in
rain mn
in
humidity
%
barometer
mb
20260504081547 33 127 0.0 0.0 0.00 0.00 0.00 92 1016.7
20260504050015 43 241 0.0 0.0 0.00 0.00 0.00 74 1016.7
20260504044507 43 243 0.0 0.0 0.00 0.00 0.00 73 1016.8
20260504043004 44 243 0.0 0.0 0.00 0.00 0.00 72 1016.8
20260504041601 44 251 0.0 0.0 0.00 0.00 0.00 71 1016.5
20260504040058 45 248 0.0 0.0 0.00 0.00 0.00 70 1016.4
20260504034600 45 243 0.0 0.0 0.00 0.00 0.00 69 1016.2
20260504033102 45 252 0.0 0.0 0.00 0.00 0.00 67 1016.1
20260504031600 46 240 0.0 0.0 0.00 0.00 0.00 66 1016.2
20260504030056 47 263 0.0 0.0 0.00 0.00 0.00 64 1016.0
20260504024556 48 261 0.0 0.0 0.00 0.00 0.00 62 1015.9
20260504023055 48 249 0.0 0.0 0.00 0.00 0.00 61 1015.9
20260504021556 49 262 0.0 0.0 0.00 0.00 0.00 59 1016.0
20260504020131 49 248 0.0 0.0 0.00 0.00 0.00 60 1016.0
20260504014604 49 248 0.0 0.0 0.00 0.00 0.00 58 1015.9
20260504013115 50 247 0.0 0.0 0.00 0.00 0.00 56 1015.7
20260504011552 51 257 0.0 0.0 0.00 0.00 0.00 55 1015.5
20260504010051 52 267 0.0 0.0 0.00 0.00 0.00 53 1015.5
20260504004620 52 257 0.0 0.0 0.00 0.00 0.00 52 1015.3
20260504003058 53 261 0.0 0.0 0.00 0.00 0.00 51 1015.2
20260504001618 54 255 0.0 0.0 0.00 0.00 0.00 49 1015.0
20260504000100 55 271 0.0 0.0 0.00 0.00 0.00 46 1014.8
20260503234549 56 271 0.0 0.0 0.00 0.00 0.00 45 1014.7
20260503233049 58 274 0.0 0.0 0.00 0.00 0.00 42 1014.7
20260503231548 59 251 0.0 0.0 0.00 0.00 0.00 41 1014.7
20260503230107 59 2 0.0 0.0 0.00 0.00 0.00 40 1014.6
20260503224547 59 269 0.0 0.0 0.00 0.00 0.00 40 1014.6
20260503223047 60 229 0.0 0.0 0.00 0.00 0.00 41 1014.5
20260503221546 60 265 0.0 0.0 0.00 0.00 0.00 39 1014.5
20260503220049 59 277 0.0 0.0 0.00 0.00 0.00 39 1014.6
20260503214545 60 181 0.0 0.0 0.00 0.00 0.00 39 1014.5
20260503213044 60 287 0.0 0.0 0.00 0.00 0.00 39 1014.4
20260503211541 59 293 0.0 0.0 0.00 0.00 0.00 40 1014.5
20260503210041 58 304 0.0 0.0 0.00 0.00 0.00 39 1014.5
20260503204540 59 24 0.0 0.0 0.00 0.00 0.00 39 1014.5
20260503203059 59 289 0.0 0.0 0.00 0.00 0.00 41 1014.6
20260503201536 58 284 0.0 0.0 0.00 0.00 0.00 40 1014.7
20260503200035 57 281 0.0 0.0 0.00 0.00 0.00 41 1014.8
20260503194540 57 318 0.0 0.0 0.00 0.00 0.00 42 1015.0
20260503193037 56 263 0.0 0.0 0.00 0.00 0.00 44 1015.2
20260503191531 57 348 0.0 0.0 0.00 0.00 0.00 43 1015.4
20260503190038 56 286 0.0 0.0 0.00 0.00 0.00 45 1015.4
20260503184527 55 302 0.0 0.0 0.00 0.00 0.00 45 1015.7
20260503183024 55 353 0.0 0.0 0.00 0.00 0.00 44 1015.8
20260503181524 55 288 0.0 0.0 0.00 0.00 0.00 46 1015.8
20260503180022 55 18 0.0 0.0 0.00 0.00 0.00 48 1015.9
20260503174520 54 342 0.0 0.0 0.00 0.00 0.00 46 1015.9
20260503173020 54 321 0.0 0.0 0.00 0.00 0.00 44 1016.2
20260503171517 53 317 0.0 0.0 0.00 0.00 0.00 49 1016.2